Tracking 28091 objects as of 30-Sep-2023
HD Live streaming from Space Station
objects crossing your sky now

STARLINK-30366

Track STARLINK-30366 now!
10-day predictions
STARLINK-30366 is classified as:


NORAD ID: 57749
Int'l Code: 2023-131T
Perigee: 495.2 km
Apogee: 497.0 km
Inclination: 43.0 °
Period: 94.4 minutes
Semi major axis: 6867 km
RCS: Unknown
Launch date: September 1, 2023
Source: United States (US)
Launch site: AIR FORCE EASTERN TEST RANGE (AFETR)
Your satellite tracking list
Your tracking list is empty




NASA's NSSDC Master Catalog

Two Line Element Set (TLE):
1 57749U 23131T   23273.50001157 -.02114013  00000-0 -90827-1 0  9999
2 57749  42.9997 336.0786 0001284 282.0652 116.6507 15.25606920  5734
Source of the keplerian elements: AFSPC